User: anonymous   Login
Location: Colonia Mina de C?rbuni
(46.1667°N, 22.7167°E)
Time: 09:13:53
(UTC+00:00)
Language:

Altair - Orbit

View from above orbital plane
View from above orbital plane
View from above satellite
View from above satellite

Ground track
Ground track

The orbit data is extracted from the following two-line orbital elements,

1 00050U 60009B   24107.70866168 -.00000057  00000-0  26723-3 0  9992
2 00050  47.2296  98.3855 0113124 176.3599 183.8035 12.20138813841063
Epoch (UTC): 16 April 2024 17:00:28
Eccentricity: 0.0113124
inclination: 47.2296°
perigee height: 1502 km
apogee height: 1682 km
right ascension of ascending node: 98.3855°
argument of perigee: 176.3599°
revolutions per day: 12.20138813
mean anomaly at epoch: 183.8035°
orbit number at epoch: 84106

The dashed part of the orbit path shows where the satellite is in the earth's shadow,  

DLR